Meriden, CT

3:28 AM EDT on June 24, 2017 (GMT -0400)
Meriden Markham Municipal

Weather History for KMMK - November, 2012

Change the Weather History Date:

Monday, November 5, 2012

  Actual Average (KOXC) Record (KOXC)
Temperature  
Mean Temperature 36 °F -  
Max Temperature 45 °F 50 °F 73 °F (2005)
Min Temperature 25 °F 34 °F 24 °F (1998)
Degree Days  
Heating Degree Days 30    
Moisture  
Dew Point 22 °F    
Average Humidity 54    
Maximum Humidity 81    
Minimum Humidity 40    
Precipitation  
Precipitation 0.00 in - - ()
Sea Level Pressure  
Sea Level Pressure 30.05 in    
Wind  
Wind Speed 7 mph (NW)    
Max Wind Speed 15 mph    
Max Gust Speed 22 mph    
Visibility 10 miles    
Events      
Averages and records for this station are not official NWS values.
T = Trace of Precipitation, MM = Missing Value Source: NWS Daily Summary

Daily Weather History Graph

Daily Weather History Graph

Search for Another Location

Airport or City:

Trip Planner

Search our weather history database for the weather conditions in past years. The results will help you decide how hot, cold, wet, or windy it might be!

Date:

Astronomy

Nov. 05, 2012 Rise Set
Actual Time 6:28 AM EST 4:40 PM EST
Civil Twilight 5:59 AM EST 5:09 PM EST
Nautical Twilight 5:26 AM EST 5:42 PM EST
Astronomical Twilight 4:53 AM EST 6:15 PM EST
Moon 10:15 PM EST (11/5) 11:46 AM EST (11/5)
Length of Visible Light 11h 10m
Length of Day
10h 12m
Waning Gibbous, 63% of the Moon is Illuminated
Nov 5
Waning Gibbous
Nov 6
Last Quarter
Nov 13
New
Nov 20
First Quarter
Nov 28
Full

Hourly Weather History & Observations

Time (EST) Temp. Windchill Dew Point Humidity Pressure Visibility Wind Dir Wind Speed Gust Speed Precip Events Conditions
12:53 AM 41.0 °F 35.2 °F 27.0 °F 57% 29.98 in 10.0 mi NW 9.2 mph - N/A   Overcast
1:53 AM 39.9 °F 33.9 °F 26.1 °F 58% 29.98 in 10.0 mi NW 9.2 mph - N/A   Overcast
2:53 AM 39.0 °F 34.8 °F 26.1 °F 60% 29.98 in 10.0 mi NW 5.8 mph - N/A   Overcast
3:53 AM 39.0 °F 35.7 °F 25.0 °F 57% 29.97 in 10.0 mi NNW 4.6 mph - N/A   Overcast
4:53 AM 37.9 °F 34.4 °F 25.0 °F 60% 29.99 in 10.0 mi NW 4.6 mph - N/A   Overcast
5:53 AM 37.9 °F 34.4 °F 25.0 °F 60% 30.00 in 10.0 mi NNW 4.6 mph - N/A   Overcast
6:53 AM 37.9 °F 32.1 °F 23.0 °F 55% 30.02 in 10.0 mi NNW 8.1 mph - N/A   Overcast
7:53 AM 39.0 °F 34.8 °F 23.0 °F 53% 30.03 in 10.0 mi Variable 5.8 mph - N/A   Overcast
8:53 AM 39.9 °F 34.5 °F 23.0 °F 51% 30.04 in 10.0 mi NW 8.1 mph 17.3 mph N/A   Overcast
9:53 AM 39.9 °F 33.4 °F 21.0 °F 47% 30.04 in 10.0 mi NW 10.4 mph - N/A   Overcast
10:53 AM 43.0 °F 36.4 °F 21.9 °F 43% 30.03 in 10.0 mi North 12.7 mph 19.6 mph N/A   Clear
11:53 AM 43.0 °F 39.5 °F 21.9 °F 43% 30.01 in 10.0 mi NNW 5.8 mph 21.9 mph N/A   Clear
12:53 PM 44.1 °F 38.1 °F 21.9 °F 42% 30.00 in 10.0 mi NNW 11.5 mph - N/A   Clear
1:53 PM 45.0 °F 38.2 °F 21.9 °F 40% 30.00 in 10.0 mi NNW 15.0 mph 20.7 mph N/A   Clear
2:53 PM 43.0 °F 36.8 °F 21.0 °F 42% 30.01 in 10.0 mi NNW 11.5 mph 19.6 mph N/A   Clear
3:53 PM 41.0 °F 33.9 °F 21.0 °F 45% 30.03 in 10.0 mi NW 12.7 mph - N/A   Clear
4:53 PM 39.9 °F 33.9 °F 19.9 °F 45% 30.06 in 10.0 mi NNW 9.2 mph - N/A   Clear
5:53 PM 37.9 °F 33.5 °F 19.9 °F 48% 30.09 in 10.0 mi North 5.8 mph - N/A   Clear
6:53 PM 36.0 °F - 19.0 °F 50% 30.12 in 10.0 mi Calm Calm - N/A   Clear
7:53 PM 32.0 °F - 21.9 °F 66% 30.13 in 10.0 mi Calm Calm - N/A   Clear
8:53 PM 33.1 °F 30.0 °F 19.9 °F 59% 30.14 in 10.0 mi NW 3.5 mph - N/A   Clear
9:53 PM 32.0 °F 26.4 °F 19.9 °F 61% 30.15 in 10.0 mi NW 5.8 mph - N/A   Clear
10:53 PM 26.1 °F 21.9 °F 19.0 °F 75% 30.17 in 10.0 mi South 3.5 mph - N/A   Clear
11:53 PM 25.0 °F - 19.9 °F 81% 30.18 in 10.0 mi Calm Calm - N/A   Clear